Hourly Data Report for May 24, 2006

TORONTO CITY
ONTARIO

43°40'00.000" N
79°24'00.000" W
112.50 m
6158355
71508
XTO

Download Data

Hourly Data (May 2006)
Hourly Data Report for May 24, 2006
TIME
LST
Temp Definition
°C
Dew Point Definition
°C
Rel Hum Definition
%
Precip. Amount Definition
mm

Wind Dir Definition
10's deg

Wind Spd Definition
km/h
Visibility Definition
km
Stn Press Definition
kPa
Hmdx Definition


Wind Chill Definition


Weather Definition


00:00 10.1 1.9 57   LegendMM LegendMM   100.43     LegendNANA
01:00 9.3 1.7 59   LegendMM LegendMM   100.38     LegendNANA
02:00 8.5 2.1 64   LegendMM LegendMM   100.39     LegendNANA
03:00 7.9 2.5 69   LegendMM LegendMM   100.40     LegendNANA
04:00 8.1 2.4 67   LegendMM LegendMM   100.41     LegendNANA
05:00 7.5 2.4 70   LegendMM LegendMM   100.39     LegendNANA
06:00 9.5 3.3 65   LegendMM LegendMM   100.40     LegendNANA
07:00 12.4 3.1 53   LegendMM LegendMM   100.43     LegendNANA
08:00 14.3 3.9 50   LegendMM LegendMM   100.44     LegendNANA
09:00 16.7 5.1 46   LegendMM LegendMM   100.38     LegendNANA
10:00 15.7 4.8 48   LegendMM LegendMM   100.38     LegendNANA
11:00 17.8 6.5 47   LegendMM LegendMM   100.31     LegendNANA
12:00 19.2 7.4 46   LegendMM LegendMM   100.22     LegendNANA
13:00 20.1 6.7 42   LegendMM LegendMM   100.20     LegendNANA
14:00 20.7 8.1 44   LegendMM LegendMM   100.09     LegendNANA
15:00 19.7 8.0 47   LegendMM LegendMM   100.03     LegendNANA
16:00 19.8 9.3 51   LegendMM LegendMM   99.95     LegendNANA
17:00 19.1 9.9 55   LegendMM LegendMM   99.93     LegendNANA
18:00 17.6 9.7 60   LegendMM LegendMM   99.89     LegendNANA
19:00 17.4 9.8 61   LegendMM LegendMM   99.81     LegendNANA
20:00 16.5 9.5 63   LegendMM LegendMM   99.79     LegendNANA
21:00 16.4 9.9 65   LegendMM LegendMM   99.83     LegendNANA
22:00 16.3 10.1 67   LegendMM LegendMM   99.83     LegendNANA
23:00 16.4 10.0 66   LegendMM LegendMM   99.76     LegendNANA

Notes on Data Quality.

Legend

  • E = Estimated
  • M = Missing
  • NA = Not Available*
  • [empty] = Indicates an unobserved value
Date modified: